Location: Albany
(35.0000°S, 118.0000°E)
Time: 23:43:34
(UTC-04:00)

Atlas Centaur 2 - Pass Details

Date: 24 August 2017
Orbit: 459 x 1313 km, 30.4° (Epoch: 25 September)

Event Time Altitude Azimuth Distance (km) Brightness Sun altitude
Exits shadow 18:08:40 - 283° (WNW) 1,894 3.5 -6.5°
Reaches altitude 10° 18:09:24 10° 286° (WNW) 1,611 3.1 -6.3°
Maximum altitude 18:12:46 39° 356° (N) 719 2.0 -5.6°
Drops below altitude 10° 18:16:16 10° 66° (ENE) 1,679 5.4 -4.9°
Sets 18:18:40 0° 74° (ENE) 2,635 7.5 -4.5°
